TimeEDT,TemperatureF,Dew PointF,Humidity,Sea Level PressureIn,VisibilityMPH,Wind Direction,Wind SpeedMPH,Gust SpeedMPH,PrecipitationIn,Events,Conditions,WindDirDegrees,DateUTC
12:53 AM,55.9,53.1,90,29.95,10.0,Calm,Calm,-,0.06,Rain,Light Rain,0,2013-05-08 04:53:00
1:53 AM,55.0,53.1,93,29.92,10.0,East,5.8,-,0.13,,Overcast,90,2013-05-08 05:53:00
2:09 AM,55.4,53.6,94,29.94,6.0,East,4.6,-,0.04,Rain,Rain,80,2013-05-08 06:09:00
2:53 AM,55.0,52.0,89,29.91,10.0,East,3.5,-,0.13,Rain,Light Rain,100,2013-05-08 06:53:00
3:53 AM,54.0,52.0,93,29.90,10.0,Calm,Calm,-,0.00,,Mostly Cloudy,0,2013-05-08 07:53:00
4:53 AM,54.0,52.0,93,29.92,10.0,Calm,Calm,-,N/A,,Overcast,0,2013-05-08 08:53:00
5:09 AM,53.6,51.8,94,29.93,10.0,Calm,Calm,-,N/A,,Overcast,0,2013-05-08 09:09:00
5:24 AM,53.6,51.8,94,29.93,0.8,North,3.5,-,N/A,,Overcast,10,2013-05-08 09:24:00
5:36 AM,53.6,51.8,94,29.94,2.0,Calm,Calm,-,N/A,,Mostly Cloudy,0,2013-05-08 09:36:00
5:44 AM,53.6,51.8,94,29.94,10.0,NE,3.5,-,N/A,,Scattered Clouds,40,2013-05-08 09:44:00
5:53 AM,53.1,51.1,93,29.94,10.0,NE,4.6,-,N/A,,Mostly Cloudy,50,2013-05-08 09:53:00
6:53 AM,55.0,48.9,80,29.95,10.0,Calm,Calm,-,N/A,,Mostly Cloudy,0,2013-05-08 10:53:00
7:53 AM,55.9,48.9,77,29.96,10.0,ESE,4.6,-,N/A,,Clear,110,2013-05-08 11:53:00
8:53 AM,60.1,50.0,69,29.97,10.0,NNE,3.5,-,N/A,,Clear,20,2013-05-08 12:53:00
9:53 AM,61.0,50.0,67,29.99,10.0,NE,4.6,-,N/A,,Mostly Cloudy,40,2013-05-08 13:53:00
10:53 AM,63.0,50.0,63,29.98,10.0,Variable,3.5,-,N/A,,Overcast,0,2013-05-08 14:53:00
11:53 AM,64.0,48.9,58,29.97,10.0,West,5.8,-,0.01,,Overcast,280,2013-05-08 15:53:00
12:53 PM,64.0,50.0,60,29.96,10.0,NW,4.6,-,N/A,,Overcast,320,2013-05-08 16:53:00
1:53 PM,64.9,48.0,54,29.96,10.0,NW,3.5,-,N/A,,Overcast,320,2013-05-08 17:53:00
2:53 PM,64.0,48.0,56,29.95,9.0,Calm,Calm,-,0.00,Rain,Light Rain,0,2013-05-08 18:53:00
3:53 PM,66.9,50.0,54,29.94,10.0,Variable,4.6,-,0.00,,Mostly Cloudy,0,2013-05-08 19:53:00
4:53 PM,70.0,46.9,44,29.92,10.0,Variable,3.5,-,N/A,,Clear,0,2013-05-08 20:53:00
5:53 PM,69.1,46.0,44,29.92,10.0,Calm,Calm,-,N/A,,Scattered Clouds,0,2013-05-08 21:53:00
6:53 PM,69.1,46.0,44,29.91,10.0,Calm,Calm,-,N/A,,Mostly Cloudy,0,2013-05-08 22:53:00
7:53 PM,66.0,48.9,54,29.93,10.0,SSW,5.8,-,N/A,,Mostly Cloudy,200,2013-05-08 23:53:00
8:53 PM,61.0,50.0,67,29.95,10.0,Variable,5.8,-,N/A,,Partly Cloudy,0,2013-05-09 00:53:00
9:53 PM,60.1,48.9,67,29.95,10.0,SSW,4.6,-,N/A,,Clear,200,2013-05-09 01:53:00
10:53 PM,59.0,50.0,72,29.97,10.0,Calm,Calm,-,N/A,,Mostly Cloudy,0,2013-05-09 02:53:00
11:53 PM,59.0,50.0,72,29.96,10.0,Calm,Calm,-,N/A,,Scattered Clouds,0,2013-05-09 03:53:00